TimeEDT,TemperatureF,Dew PointF,Humidity,Sea Level PressureIn,VisibilityMPH,Wind Direction,Wind SpeedMPH,Gust SpeedMPH,PrecipitationIn,Events,Conditions,WindDirDegrees,DateUTC
12:52 AM,70.0,55.9,61,30.08,10.0,NW,6.9,-,N/A,,Clear,320,2013-07-30 04:52:00
1:52 AM,69.1,55.9,63,30.09,10.0,North,4.6,-,N/A,,Clear,360,2013-07-30 05:52:00
2:52 AM,68.0,55.9,65,30.08,10.0,North,4.6,-,N/A,,Clear,350,2013-07-30 06:52:00
3:52 AM,66.0,55.0,68,30.09,10.0,Calm,Calm,-,N/A,,Clear,0,2013-07-30 07:52:00
4:52 AM,64.0,55.0,73,30.12,10.0,Calm,Calm,-,N/A,,Mostly Cloudy,0,2013-07-30 08:52:00
5:52 AM,64.9,55.0,70,30.13,10.0,Calm,Calm,-,N/A,,Clear,0,2013-07-30 09:52:00
6:52 AM,66.9,57.9,73,30.14,10.0,Calm,Calm,-,N/A,,Clear,0,2013-07-30 10:52:00
7:52 AM,70.0,55.9,61,30.14,10.0,WNW,5.8,-,N/A,,Clear,300,2013-07-30 11:52:00
8:52 AM,72.0,55.9,57,30.15,10.0,WNW,8.1,-,N/A,,Clear,290,2013-07-30 12:52:00
9:52 AM,75.0,57.0,53,30.15,10.0,NW,8.1,-,N/A,,Clear,310,2013-07-30 13:52:00
10:52 AM,78.1,55.0,45,30.15,10.0,West,6.9,-,N/A,,Clear,270,2013-07-30 14:52:00
11:52 AM,78.1,59.0,52,30.14,10.0,SW,11.5,-,N/A,,Clear,220,2013-07-30 15:52:00
12:52 PM,79.0,59.0,50,30.13,10.0,SW,12.7,-,N/A,,Mostly Cloudy,230,2013-07-30 16:52:00
1:52 PM,81.0,55.0,41,30.12,10.0,West,9.2,-,N/A,,Scattered Clouds,280,2013-07-30 17:52:00
2:52 PM,81.0,55.0,41,30.10,10.0,WNW,12.7,18.4,N/A,,Partly Cloudy,290,2013-07-30 18:52:00
3:52 PM,81.0,55.9,42,30.09,10.0,NNE,3.5,-,N/A,,Mostly Cloudy,20,2013-07-30 19:52:00
4:52 PM,81.0,52.0,36,30.08,10.0,WNW,8.1,-,N/A,,Mostly Cloudy,290,2013-07-30 20:52:00
5:52 PM,80.1,55.0,42,30.08,10.0,NNW,12.7,-,N/A,,Mostly Cloudy,330,2013-07-30 21:52:00
6:52 PM,80.1,55.9,43,30.10,10.0,WNW,10.4,-,N/A,,Clear,300,2013-07-30 22:52:00
7:52 PM,77.0,55.0,47,30.12,10.0,West,6.9,-,N/A,,Clear,280,2013-07-30 23:52:00
8:52 PM,75.0,57.0,53,30.12,10.0,West,4.6,-,N/A,,Clear,270,2013-07-31 00:52:00
9:52 PM,73.0,57.9,59,30.12,10.0,WNW,4.6,-,N/A,,Clear,300,2013-07-31 01:52:00
10:52 PM,73.0,57.9,59,30.12,10.0,Calm,Calm,-,N/A,,Clear,0,2013-07-31 02:52:00
11:52 PM,71.1,60.1,68,30.12,10.0,Calm,Calm,-,N/A,,Clear,0,2013-07-31 03:52:00